Location: Ambatotampy
(18.8181°S, 47.6186°E)
Time: 23:42:05
(UTC+00:00)

ADEOS - Pass Details

Date: 21 January 2021
Orbit: 792 x 794 km, 98.9° (Epoch: 24 February)

Event Time Altitude Azimuth Distance (km) Brightness Sun altitude
Rises 01:05:00 0° 8° (N) 3,272 6.5 -18.7°
Reaches altitude 10° 01:07:19 10° 5° (N) 2,350 5.8 -18.3°
Maximum altitude 01:12:29 68° 282° (WNW) 854 3.5 -17.2°
Drops below altitude 10° 01:17:42 10° 199° (SSW) 2,375 6.2 -16.1°
Sets 01:20:03 0° 196° (SSW) 3,310 6.9 -15.6°
